[[{"header":{"parameterUnit":"m.s-1","parameterCategory":2,"la1":30.2991,"la2":30.254,"lo1":-89.0895,"lo2":-89.0444,"dy":0.0017,"dx":0.0017,"nx":28,"ny":28,"refTime":"2023-08-23T09:00:00:Z","depth":"0","parameterNumber":2,"parameterNumberName":"U-component_of_CURRENTS"},"data":[0,0,0,0,0,0,0,0,0,0,0,0,0,0,0,0,0,0,0,0,0,0,0,0,0,0,0,0,0,0,0,0,0,0,0,0,0,0,0,0,0,0,0,0,0,0,0,0,0,0,0,0,0,0,0,0,0,0,-0.298,-0.2981,0,-0.2969,-0.2968,-0.2967,-0.2851,-0.2849,-0.2846,-0.2844,-0.2734,-0.2733,-0.2733,0,0,0,0,0,0,0,0,0,0,0,0,0,-0.2795,-0.2799,-0.298,-0.2981,-0.2981,-0.2969,-0.2968,-0.2967,-0.2851,-0.2848,-0.2846,-0.2843,-0.2734,-0.2734,-0.2733,0,0,0,0,0,0,0,0,0,0,0,0,0,-0.2832,-0.28,-0.298,-0.2927,-0.2923,-0.2969,-0.2968,-0.2967,-0.2852,-0.2848,-0.2845,-0.2842,-0.2735,-0.2734,-0.2732,-0.2793,0,0,-0.2729,-0.2728,0,0,0,0,0,0,0,0,-0.283,-0.2838,-0.2935,-0.2931,-0.2926,-0.2914,-0.2863,-0.2906,-0.2853,-0.2871,-0.2844,-0.284,-0.2793,-0.2786,-0.2783,-0.2787,-0.2783,-0.2729,-0.2728,-0.2727,-0.2727,0,0,0,0,0,0,0,-0.2828,-0.2837,-0.2968,-0.2936,-0.2931,-0.2868,-0.2869,-0.287,-0.2844,-0.2869,-0.2863,-0.2874,-0.2788,-0.2784,-0.2779,-0.2781,-0.2729,-0.2727,-0.2727,-0.2726,-0.2731,-0.2732,0,0,0,0,0,0,-0.2854,-0.2837,-0.2969,-0.2969,-0.2877,-0.2875,-0.2876,-0.2916,-0.2846,-0.2835,-0.2877,-0.2869,-0.2788,-0.2781,-0.2775,-0.2745,-0.2727,-0.2726,-0.2725,-0.273,-0.2731,-0.2732,0,0,0,0,0,0,-0.2851,-0.2867,-0.297,-0.2905,-0.2915,-0.2883,-0.2927,-0.2917,-0.2908,-0.2854,-0.2838,-0.2877,-0.2785,-0.2777,-0.2754,-0.2743,-0.2726,-0.2724,-0.2729,-0.273,-0.2731,-0.2748,0,0,0,0,0,0,-0.2846,-0.2867,-0.2899,-0.2909,-0.292,-0.3001,-0.2931,-0.292,-0.2924,-0.2912,-0.285,-0.2836,-0.2782,-0.2756,-0.2753,-0.2741,-0.2723,-0.2728,-0.2729,-0.2731,-0.2746,-0.275,-0.2753,0,0,0,0,0,-0.284,-0.2918,-0.2902,-0.2917,-0.2968,-0.3004,-0.3003,-0.2962,-0.2928,-0.2937,-0.2876,-0.2838,-0.2763,-0.2756,-0.2752,-0.274,-0.2727,-0.2729,-0.2731,-0.2745,-0.2749,-0.2753,0,0,0,0,0,0,-0.2865,-0.2915,-0.2896,-0.2987,-0.299,-0.2986,-0.3004,-0.2981,-0.2946,-0.2924,-0.2857,-0.2841,-0.2819,-0.2794,-0.2789,-0.2749,-0.2737,-0.2739,-0.2749,-0.2753,-0.2756,-0.2724,-0.2722,0,0,0,0,0,-0.2889,-0.295,-0.2968,-0.3037,-0.3043,-0.3024,-0.3033,-0.3007,-0.2985,-0.2966,-0.2919,-0.2869,-0.2832,-0.2802,-0.278,-0.2768,-0.2701,-0.2758,-0.2761,-0.2763,-0.2737,-0.261,-0.2597,-0.2738,-0.2738,-0.2738,0,0,-0.292,-0.2954,-0.2989,-0.3044,-0.3039,-0.3041,-0.3018,-0.3044,-0.3016,-0.2964,-0.2917,-0.2894,-0.2839,-0.2806,-0.2794,-0.2775,-0.2701,-0.2766,-0.2768,-0.2739,-0.261,-0.2596,-0.2583,-0.274,-0.2739,-0.2739,0,0,-0.299,-0.3039,-0.3086,-0.3088,-0.3099,-0.3083,-0.3095,-0.3088,-0.3051,-0.3038,-0.2971,-0.2934,-0.2906,-0.2829,-0.2794,-0.2812,-0.2735,-0.2823,-0.2788,-0.2667,-0.2653,-0.2639,-0.2577,-0.2558,-0.2805,-0.2805,-0.2805,0,-0.3004,-0.3058,-0.3103,-0.3121,-0.3094,-0.31,-0.3083,-0.308,-0.3056,-0.3002,-0.3025,-0.2916,-0.2902,-0.2788,-0.2801,-0.2812,-0.2748,-0.2774,-0.2665,-0.265,-0.2635,-0.2575,-0.2553,-0.2806,-0.2806,-0.2806,-0.2806,0,-0.3084,-0.3095,-0.3125,-0.3125,-0.3122,-0.3121,-0.3101,-0.3083,-0.3056,-0.3019,-0.2938,-0.2912,-0.2821,-0.2837,-0.2833,-0.272,-0.2713,-0.2694,-0.2644,-0.2621,-0.2561,-0.2538,-0.2807,-0.2807,-0.2807,-0.2806,0,0,-0.3138,-0.3162,-0.3157,-0.3091,-0.3096,-0.3077,-0.3057,-0.2987,-0.2922,-0.292,-0.2817,-0.2792,-0.2765,-0.2726,-0.2703,-0.2626,-0.2526,-0.2627,-0.262,-0.2547,-0.2283,-0.2227,-0.2197,-0.2471,-0.2467,-0.2463,-0.2296,0,-0.3133,-0.3106,-0.3149,-0.307,-0.3005,-0.2995,-0.296,-0.2908,-0.2874,-0.2803,-0.2752,-0.2679,-0.2722,-0.2678,-0.2609,-0.2551,-0.2459,-0.2575,-0.2332,-0.2326,-0.226,-0.2165,-0.2075,-0.1912,-0.2273,-0.2269,-0.2266,0,-0.3132,-0.3094,-0.3012,-0.2915,-0.2897,-0.2878,-0.2743,-0.2726,-0.2662,-0.2637,-0.2561,-0.2545,-0.2449,-0.2502,-0.2326,-0.2394,-0.2334,-0.2296,-0.2286,-0.2198,-0.2223,-0.1986,-0.1855,-0.1855,-0.223,-0.2233,-0.2235,0,-0.298,-0.2967,-0.2862,-0.2835,-0.2779,-0.2727,-0.2702,-0.2642,-0.2596,-0.2515,-0.2474,-0.2369,-0.2304,-0.221,-0.218,-0.2225,-0.1999,-0.2037,-0.1915,-0.1913,-0.1768,-0.176,-0.1577,-0.1862,-0.1862,-0.1863,-0.1863,0,-0.2854,-0.2769,-0.2784,-0.2694,-0.2598,-0.2602,-0.2499,-0.2474,-0.2437,-0.2365,-0.2365,-0.2273,-0.2222,-0.2122,-0.2101,-0.1932,-0.1908,-0.1867,-0.1831,-0.1782,-0.1777,-0.1716,-0.1764,-0.1857,-0.1858,-0.1859,-0.186,0,-0.2644,-0.2659,-0.2546,-0.2504,-0.2501,-0.242,-0.241,-0.2346,-0.2327,-0.2237,-0.2207,-0.2153,-0.2015,-0.197,-0.182,-0.1792,-0.1627,-0.1611,-0.1597,-0.156,-0.1458,-0.1512,-0.1288,-0.1252,-0.143,-0.1427,-0.1425,0,-0.251,-0.2426,-0.2402,-0.2377,-0.2358,-0.2292,-0.2259,-0.2265,-0.2216,-0.2149,-0.2086,-0.1961,-0.1833,-0.1621,-0.1544,-0.1419,-0.1469,-0.1277,-0.1334,-0.1389,-0.1422,-0.1493,-0.1487,-0.1177,-0.1173,-0.1169,-0.1167,0,-0.2268,-0.2296,-0.2237,-0.2157,-0.2126,-0.2092,-0.2049,-0.1991,-0.199,-0.1914,-0.1765,-0.1663,-0.152,-0.1329,-0.1223,-0.117,-0.1254,-0.1199,-0.1212,-0.115,-0.1249,-0.1221,-0.1421,-0.1135,-0.1138,-0.1141,-0.1142,-0.1144,-0.2118,-0.2054,-0.1999,-0.19,-0.1893,-0.1805,-0.1677,-0.1665,-0.1529,-0.1323,-0.1396,-0.1125,-0.1094,-0.0913,-0.092,-0.0889,-0.0988,-0.0873,-0.0919,-0.0978,-0.096,-0.1124,-0.0831,-0.0832,-0.0833,-0.0834,-0.0835,0,-0.1788,-0.1765,-0.1734,-0.1581,-0.146,-0.1553,-0.146,-0.1296,-0.1049,-0.0957,-0.0768,-0.0504,-0.046,-0.0527,-0.0614,-0.0624,-0.066,-0.0641,-0.0716,-0.0713,-0.0781,-0.0788,-0.0524,-0.0524,-0.0524,-0.0524,-0.0524,-0.0524,-0.1602,-0.1437,-0.1412,-0.1123,-0.1073,-0.0834,-0.0735,-0.0598,-0.0475,-0.0148,0.0064,0.0146,-0.0044,-0.033,-0.0519,-0.0535,-0.0574,-0.0542,-0.0605,-0.068,-0.0707,-0.0733,-0.0748,-0.0479,-0.0479,-0.0498,-0.0498,-0.0498]},{"header":{"parameterUnit":"m.s-1","parameterCategory":2,"la1":30.2991,"la2":30.254,"lo1":-89.0895,"lo2":-89.0444,"dy":0.0017,"dx":0.0017,"nx":28,"ny":28,"refTime":"2023-08-23T09:00:00:Z","depth":"0","parameterNumber":3,"parameterNumberName":"V-component_of_CURRENTS"},"data":[0,0,0,0,0,0,0,0,0,0,0,0,0,0,0,0,0,0,0,0,0,0,0,0,0,0,0,0,0,0,0,0,0,0,0,0,0,0,0,0,0,0,0,0,0,0,0,0,0,0,0,0,0,0,0,0,0,0,-0.0219,-0.0218,0,-0.0099,-0.0098,-0.0096,-0.0029,-0.0029,-0.0028,-0.0028,0.0102,0.0105,0.0108,0,0,0,0,0,0,0,0,0,0,0,0,0,-0.0303,-0.0302,-0.0219,-0.0218,-0.0216,-0.0099,-0.0098,-0.0096,-0.0029,-0.0029,-0.0028,-0.0028,0.0101,0.0105,0.0108,0,0,0,0,0,0,0,0,0,0,0,0,0,-0.0234,-0.0302,-0.0219,-0.0167,-0.0161,-0.0099,-0.0098,-0.0096,-0.0029,-0.0028,-0.0028,-0.0028,0.01,0.0104,0.0109,0.0128,0,0,0.0123,0.0125,0,0,0,0,0,0,0,0,-0.0238,-0.0232,-0.0177,-0.0171,-0.0164,-0.0077,-0.0079,-0.002,-0.0029,-0.0081,-0.0028,-0.0027,0.0043,0.0053,0.0072,0.0134,0.014,0.0124,0.0127,0.0129,0.013,0,0,0,0,0,0,0,-0.0243,-0.0236,-0.0173,-0.0175,-0.0167,-0.012,-0.011,-0.0067,-0.0024,-0.0076,-0.0071,-0.0055,0.0047,0.0068,0.0076,0.0142,0.0124,0.0128,0.0131,0.0133,0.0209,0.0209,0,0,0,0,0,0,-0.0261,-0.0241,-0.0177,-0.0169,-0.0199,-0.0119,-0.0108,-0.0107,-0.0024,-0.0011,-0.0056,-0.0053,0.0059,0.007,0.0081,0.0121,0.0129,0.0133,0.0136,0.021,0.0209,0.0208,0,0,0,0,0,0,-0.0263,-0.0257,-0.0181,-0.02,-0.0187,-0.0119,-0.0117,-0.0105,-0.0081,-0.0009,0.0005,-0.0044,0.006,0.0074,0.0106,0.0126,0.0135,0.0139,0.0211,0.021,0.0209,0.0193,0,0,0,0,0,0,-0.0266,-0.0259,-0.0271,-0.0202,-0.0187,-0.0152,-0.0116,-0.0102,-0.0072,-0.0066,0.0006,0.0018,0.0062,0.0099,0.0111,0.0133,0.0143,0.0212,0.0211,0.0209,0.0195,0.0192,0.0189,0,0,0,0,0,-0.027,-0.0281,-0.0273,-0.0265,-0.0204,-0.0152,-0.014,-0.0089,-0.0072,-0.0066,-0.0026,0.0016,0.0098,0.0102,0.0117,0.014,0.0213,0.0211,0.0209,0.0196,0.0192,0.0189,0,0,0,0,0,0,-0.0336,-0.0273,-0.0262,-0.0259,-0.0215,-0.014,-0.0127,-0.0095,-0.0057,-0.0054,0.0009,0.0024,0.0055,0.0089,0.0091,0.0152,0.0161,0.0162,0.0146,0.0143,0.014,0.0172,0.0147,0,0,0,0,0,-0.0356,-0.0342,-0.0282,-0.0283,-0.0261,-0.0198,-0.0173,-0.014,-0.0092,-0.0074,-0.0026,0.0019,0.0059,0.0092,0.0123,0.0165,0.019,0.0184,0.0181,0.0179,0.0211,0.0287,0.0295,0.0202,0.0202,0.0203,0,0,-0.0388,-0.0347,-0.0346,-0.0295,-0.0255,-0.0223,-0.0182,-0.0146,-0.0117,-0.0066,-0.0025,0.0005,0.006,0.01,0.0119,0.0136,0.0196,0.0177,0.0175,0.0209,0.0286,0.0296,0.0305,0.0201,0.0201,0.0202,0,0,-0.0423,-0.0403,-0.0396,-0.0353,-0.0292,-0.0251,-0.0244,-0.0177,-0.0143,-0.0114,-0.0066,-0.0019,0.0027,0.0095,0.013,0.013,0.0166,0.0125,0.0163,0.0235,0.0245,0.0254,0.0207,0.0212,0.0141,0.0141,0.0141,0,-0.047,-0.0434,-0.0389,-0.0357,-0.0312,-0.0266,-0.0235,-0.0202,-0.0137,-0.0085,-0.0113,0.0003,0.0034,0.0143,0.0133,0.0133,0.0137,0.0175,0.0236,0.0246,0.0256,0.0207,0.0213,0.014,0.014,0.014,0.014,0,-0.0472,-0.0449,-0.0435,-0.0377,-0.0337,-0.0299,-0.0238,-0.0201,-0.0171,-0.0118,-0.0034,0.0006,0.0093,0.0096,0.0113,0.0212,0.0172,0.0211,0.0254,0.0265,0.021,0.0217,0.0138,0.0139,0.0139,0.0139,0,0,-0.0569,-0.0458,-0.0457,-0.0408,-0.0328,-0.0288,-0.0239,-0.0146,-0.0087,-0.005,0.0034,0.0098,0.0137,0.0179,0.0217,0.0282,0.0303,0.0274,0.0278,0.024,0.0378,0.0383,0.039,0.0364,0.0367,0.037,0.0279,0,-0.0581,-0.0517,-0.0452,-0.0392,-0.0347,-0.026,-0.0206,-0.0123,-0.0069,0.0005,0.0089,0.0146,0.0164,0.019,0.0268,0.0295,0.0336,0.0319,0.0363,0.0362,0.0381,0.0407,0.047,0.0402,0.0286,0.0287,0.0288,0,-0.0595,-0.054,-0.0481,-0.0347,-0.0318,-0.0285,-0.015,-0.0095,0.0025,0.0067,0.0165,0.0205,0.0295,0.0289,0.0388,0.0373,0.0381,0.0396,0.0394,0.0431,0.0387,0.0389,0.0419,0.0516,0.0299,0.0298,0.0297,0,-0.0651,-0.0548,-0.049,-0.045,-0.0322,-0.0268,-0.0199,-0.0076,-0.0023,0.0095,0.0107,0.0256,0.0254,0.0358,0.0364,0.0382,0.0434,0.0462,0.0471,0.0464,0.0549,0.0548,0.071,0.0554,0.0554,0.0555,0.0555,0,-0.0662,-0.0614,-0.0515,-0.0485,-0.0412,-0.0303,-0.0226,-0.0131,-0.0034,0.0025,0.012,0.0155,0.0275,0.031,0.0368,0.0417,0.0435,0.0489,0.0482,0.053,0.0529,0.0642,0.0673,0.0551,0.0552,0.0553,0.0553,0,-0.0719,-0.0654,-0.0588,-0.0471,-0.0442,-0.0394,-0.0288,-0.0223,-0.0142,-0.0081,-0.0062,0.0041,0.0112,0.0199,0.0306,0.0369,0.0515,0.046,0.0443,0.0441,0.059,0.0615,0.0739,0.0821,0.0482,0.0482,0.0482,0,-0.0721,-0.07,-0.0621,-0.0581,-0.0531,-0.0461,-0.0408,-0.0302,-0.0241,-0.0146,-0.0121,-0.0063,0.006,0.0177,0.0295,0.0405,0.0496,0.0495,0.0596,0.0631,0.0653,0.0658,0.072,0.0634,0.0635,0.0636,0.0637,0,-0.0712,-0.0705,-0.0645,-0.0592,-0.0546,-0.0499,-0.0417,-0.0401,-0.0272,-0.0203,-0.0069,0.0036,0.012,0.0312,0.0394,0.0469,0.0609,0.0522,0.0618,0.0854,0.0818,0.088,0.0558,0.0647,0.0646,0.0646,0.0645,0.0645,-0.0685,-0.0654,-0.0578,-0.0516,-0.0491,-0.0447,-0.0379,-0.0301,-0.0186,-0.0005,0.0031,0.0254,0.0434,0.0612,0.0606,0.0706,0.0689,0.0808,0.0836,0.0835,0.0963,0.061,0.0676,0.0675,0.0674,0.0674,0.0673,0,-0.0569,-0.0518,-0.0475,-0.0383,-0.034,-0.0353,-0.0289,-0.019,-0.0017,0.0108,0.031,0.0681,0.0837,0.09,0.0997,0.1046,0.1068,0.1078,0.1142,0.1196,0.0943,0.1005,0.1078,0.1078,0.1078,0.1078,0.1078,0.1078,-0.0478,-0.0375,-0.0352,-0.0209,-0.0172,-0.0069,-0.0015,0.0089,0.021,0.0505,0.0738,0.0927,0.1156,0.127,0.1332,0.1331,0.1454,0.1392,0.1445,0.1304,0.1282,0.1261,0.1332,0.1472,0.1472,0.1731,0.1734,0.1736]}],[{"header":{"parameterUnit":"m.s-1","parameterCategory":2,"la1":30.2991,"la2":30.254,"lo1":-89.0895,"lo2":-89.0444,"dy":0.0017,"dx":0.0017,"nx":28,"ny":28,"refTime":"2023-08-23T09:00:00:Z","depth":"2","parameterNumber":2,"parameterNumberName":"U-component_of_CURRENTS"},"data":[0,0,0,0,0,0,0,0,0,0,0,0,0,0,0,0,0,0,0,0,0,0,0,0,0,0,0,0,0,0,0,0,0,0,0,0,0,0,0,0,0,0,0,0,0,0,0,0,0,0,0,0,0,0,0,0,0,0,-0.2126,-0.2127,0,-0.2187,-0.2187,-0.2187,-0.2372,-0.2377,-0.2382,-0.2386,-0.2539,-0.2539,-0.2539,0,0,0,0,0,0,0,0,0,0,0,0,0,-0.2011,-0.2013,-0.2125,-0.2127,-0.2128,-0.2187,-0.2187,-0.2188,-0.2372,-0.2377,-0.2383,-0.2388,-0.254,-0.2539,-0.2539,0,0,0,0,0,0,0,0,0,0,0,0,0,-0.2061,-0.2013,-0.2125,-0.223,-0.2241,-0.2187,-0.2187,-0.2188,-0.2371,-0.2377,-0.2384,-0.239,-0.254,-0.2539,-0.2539,-0.2403,0,0,-0.2539,-0.2539,0,0,0,0,0,0,0,0,-0.2058,-0.2064,-0.2214,-0.2223,-0.2235,-0.2283,-0.2204,-0.2266,-0.2369,-0.2316,-0.2386,-0.2394,-0.246,-0.2467,-0.2455,-0.241,-0.2416,-0.2539,-0.2539,-0.2539,-0.2538,0,0,0,0,0,0,0,-0.2055,-0.2062,-0.2145,-0.2215,-0.2227,-0.2221,-0.2237,-0.2215,-0.2347,-0.2321,-0.2336,-0.2348,-0.2467,-0.2455,-0.2461,-0.2419,-0.2539,-0.2539,-0.2538,-0.2538,-0.262,-0.2622,0,0,0,0,0,0,-0.2057,-0.2059,-0.2143,-0.2147,-0.2167,-0.2219,-0.2236,-0.2257,-0.2346,-0.2367,-0.2342,-0.2357,-0.2452,-0.2461,-0.2467,-0.2575,-0.2539,-0.2538,-0.2538,-0.2618,-0.2621,-0.2623,0,0,0,0,0,0,-0.2055,-0.2064,-0.2141,-0.2108,-0.2118,-0.2215,-0.2236,-0.2255,-0.2313,-0.2362,-0.2386,-0.2392,-0.2458,-0.2467,-0.2563,-0.2573,-0.2538,-0.2538,-0.2615,-0.2619,-0.2622,-0.2621,0,0,0,0,0,0,-0.2051,-0.2063,-0.2092,-0.2108,-0.2121,-0.2183,-0.2231,-0.2251,-0.2308,-0.2329,-0.2409,-0.2427,-0.2464,-0.2563,-0.2562,-0.2572,-0.2538,-0.2612,-0.2617,-0.2621,-0.2618,-0.2624,-0.2629,0,0,0,0,0,-0.2047,-0.2095,-0.2092,-0.2104,-0.2153,-0.2185,-0.2191,-0.2276,-0.2304,-0.2348,-0.2428,-0.2428,-0.259,-0.2564,-0.2563,-0.2573,-0.261,-0.2616,-0.2621,-0.2616,-0.2623,-0.2629,0,0,0,0,0,0,-0.2088,-0.2117,-0.2117,-0.2178,-0.2199,-0.2221,-0.2268,-0.2283,-0.2363,-0.24,-0.2444,-0.2468,-0.256,-0.2565,-0.2535,-0.2618,-0.2601,-0.2606,-0.2598,-0.2605,-0.261,-0.2551,-0.2538,0,0,0,0,0,-0.2089,-0.2115,-0.2141,-0.2179,-0.2201,-0.2217,-0.2241,-0.2283,-0.2342,-0.2385,-0.2434,-0.2497,-0.2554,-0.2589,-0.2638,-0.265,-0.2582,-0.2664,-0.267,-0.2674,-0.263,-0.2543,-0.2533,-0.264,-0.264,-0.264,0,0,-0.2094,-0.2126,-0.2132,-0.2184,-0.2204,-0.2232,-0.2254,-0.2306,-0.2342,-0.2379,-0.2469,-0.2516,-0.257,-0.2634,-0.2669,-0.2651,-0.2617,-0.268,-0.2683,-0.2636,-0.2546,-0.2535,-0.2524,-0.2644,-0.2643,-0.2642,0,0,-0.2121,-0.2164,-0.2191,-0.222,-0.2267,-0.2273,-0.2294,-0.233,-0.2387,-0.2435,-0.25,-0.2552,-0.2618,-0.2659,-0.2684,-0.2729,-0.2658,-0.2765,-0.2721,-0.2639,-0.2626,-0.2615,-0.2531,-0.2511,-0.2754,-0.2754,-0.2754,0,-0.2126,-0.2165,-0.2203,-0.2251,-0.2267,-0.2295,-0.2316,-0.2361,-0.2425,-0.2434,-0.2492,-0.2554,-0.2616,-0.2649,-0.2701,-0.2731,-0.2672,-0.2688,-0.2636,-0.2623,-0.2611,-0.2528,-0.2506,-0.2755,-0.2755,-0.2755,-0.2755,0,-0.2144,-0.2203,-0.2233,-0.2278,-0.231,-0.2337,-0.2388,-0.2432,-0.2464,-0.2466,-0.2518,-0.2583,-0.2612,-0.265,-0.2694,-0.2657,-0.264,-0.2656,-0.2598,-0.2598,-0.2513,-0.2491,-0.2756,-0.2755,-0.2755,-0.2755,0,0,-0.2071,-0.2206,-0.2217,-0.2231,-0.2319,-0.2319,-0.2406,-0.2424,-0.242,-0.2488,-0.246,-0.257,-0.2565,-0.2593,-0.2642,-0.2572,-0.2471,-0.2578,-0.2574,-0.2456,-0.227,-0.2218,-0.2188,-0.2469,-0.2465,-0.2462,-0.2248,0,-0.2056,-0.2126,-0.2201,-0.2233,-0.2262,-0.2325,-0.2381,-0.2413,-0.2431,-0.2424,-0.2462,-0.2472,-0.2562,-0.2562,-0.2522,-0.249,-0.2409,-0.2525,-0.232,-0.2313,-0.2233,-0.216,-0.2048,-0.1844,-0.2225,-0.2222,-0.2219,0,-0.204,-0.2084,-0.2122,-0.2192,-0.2205,-0.2229,-0.224,-0.2282,-0.2314,-0.2333,-0.2339,-0.2367,-0.2352,-0.2399,-0.2297,-0.2368,-0.2313,-0.2262,-0.2253,-0.2172,-0.2217,-0.1907,-0.1788,-0.218,-0.2184,-0.2186,-0.2189,0,-0.1925,-0.2024,-0.203,-0.2054,-0.2143,-0.2161,-0.219,-0.2237,-0.2242,-0.2241,-0.2214,-0.2222,-0.2203,-0.2145,-0.2139,-0.2192,-0.1963,-0.2026,-0.191,-0.1907,-0.175,-0.1739,-0.1878,-0.1878,-0.1879,-0.1879,-0.188,0,-0.1883,-0.1883,-0.1974,-0.197,-0.1963,-0.2055,-0.2025,-0.2079,-0.21,-0.2065,-0.2142,-0.211,-0.2128,-0.2056,-0.2045,-0.1906,-0.1898,-0.1847,-0.1825,-0.1756,-0.1748,-0.2002,-0.2019,-0.1871,-0.1873,-0.1875,-0.1876,0,-0.1777,-0.1851,-0.1836,-0.1897,-0.1923,-0.1899,-0.195,-0.1924,-0.1969,-0.1923,-0.1924,-0.1969,-0.1889,-0.1881,-0.1757,-0.1758,-0.1643,-0.1593,-0.1518,-0.1491,-0.1661,-0.1682,-0.1407,-0.1403,-0.1399,-0.1396,-0.1394,0,-0.1719,-0.1714,-0.1738,-0.174,-0.1772,-0.1771,-0.1795,-0.1862,-0.1842,-0.1841,-0.1811,-0.1748,-0.1717,-0.1537,-0.148,-0.137,-0.1487,-0.1214,-0.1296,-0.1594,-0.1601,-0.1628,-0.1653,-0.1094,-0.1089,-0.1085,-0.1082,0,-0.1583,-0.1592,-0.1592,-0.1594,-0.1609,-0.1598,-0.1632,-0.1615,-0.1674,-0.1652,-0.162,-0.1583,-0.1452,-0.1304,-0.118,-0.1127,-0.1235,-0.1131,-0.1388,-0.126,-0.1288,-0.1302,-0.1337,-0.1048,-0.1051,-0.1054,-0.1056,-0.1057,-0.146,-0.1429,-0.1438,-0.1426,-0.1444,-0.1427,-0.1384,-0.1424,-0.1392,-0.1358,-0.1416,-0.1319,-0.1287,-0.1035,-0.0944,-0.0861,-0.0962,-0.0939,-0.0954,-0.0972,-0.1003,-0.1027,-0.0742,-0.0743,-0.0744,-0.0746,-0.0747,0,-0.1299,-0.1303,-0.1276,-0.1261,-0.1213,-0.1273,-0.127,-0.1211,-0.1154,-0.1164,-0.1132,-0.0987,-0.0867,-0.0825,-0.0633,-0.0592,-0.0624,-0.0576,-0.0631,-0.0663,-0.0692,-0.0715,-0.0373,-0.0372,-0.0371,-0.037,0,0,-0.1227,-0.1161,-0.1147,-0.1033,-0.1026,-0.0929,-0.0904,-0.087,-0.0851,-0.0786,-0.0746,-0.0826,-0.0807,-0.0616,-0.0549,-0.0423,-0.0549,-0.0395,-0.069,-0.0787,-0.0816,-0.0886,-0.0954,0,0,0,0,0]},{"header":{"parameterUnit":"m.s-1","parameterCategory":2,"la1":30.2991,"la2":30.254,"lo1":-89.0895,"lo2":-89.0444,"dy":0.0017,"dx":0.0017,"nx":28,"ny":28,"refTime":"2023-08-23T09:00:00:Z","depth":"2","parameterNumber":3,"parameterNumberName":"V-component_of_CURRENTS"},"data":[0,0,0,0,0,0,0,0,0,0,0,0,0,0,0,0,0,0,0,0,0,0,0,0,0,0,0,0,0,0,0,0,0,0,0,0,0,0,0,0,0,0,0,0,0,0,0,0,0,0,0,0,0,0,0,0,0,0,-0.0435,-0.0434,0,-0.0376,-0.0376,-0.0376,-0.0203,-0.0199,-0.0194,-0.0189,0.0052,0.0054,0.0056,0,0,0,0,0,0,0,0,0,0,0,0,0,-0.0512,-0.0512,-0.0435,-0.0434,-0.0432,-0.0376,-0.0376,-0.0376,-0.0204,-0.0198,-0.0193,-0.0187,0.0052,0.0054,0.0056,0,0,0,0,0,0,0,0,0,0,0,0,0,-0.0479,-0.0512,-0.0436,-0.0331,-0.0321,-0.0376,-0.0376,-0.0376,-0.0205,-0.0198,-0.0191,-0.0184,0.0051,0.0054,0.0057,-0.0068,0,0,0.0066,0.0067,0,0,0,0,0,0,0,0,-0.0481,-0.0478,-0.0348,-0.0339,-0.0326,-0.028,-0.0314,-0.026,-0.0207,-0.0261,-0.0189,-0.0181,-0.004,-0.003,-0.0052,-0.0057,-0.0046,0.0066,0.0068,0.0069,0.007,0,0,0,0,0,0,0,-0.0483,-0.048,-0.0423,-0.0347,-0.0334,-0.0325,-0.0313,-0.0305,-0.0196,-0.0255,-0.024,-0.0219,-0.0033,-0.0056,-0.0044,-0.0043,0.0066,0.0069,0.0071,0.0072,0.0216,0.0218,0,0,0,0,0,0,-0.0471,-0.0482,-0.0424,-0.042,-0.0376,-0.0328,-0.0315,-0.0311,-0.02,-0.0174,-0.0225,-0.0211,-0.0064,-0.0048,-0.0035,0.0115,0.0069,0.0072,0.0074,0.0214,0.0217,0.0219,0,0,0,0,0,0,-0.0474,-0.0468,-0.0427,-0.0439,-0.0432,-0.0333,-0.0331,-0.0313,-0.0276,-0.0176,-0.0148,-0.0196,-0.0058,-0.0039,0.0075,0.0117,0.0073,0.0076,0.0212,0.0215,0.0218,0.0231,0,0,0,0,0,0,-0.0477,-0.047,-0.0466,-0.044,-0.043,-0.0406,-0.0336,-0.0317,-0.0272,-0.0252,-0.0145,-0.0118,-0.0051,0.007,0.0078,0.012,0.0078,0.0209,0.0213,0.0217,0.0228,0.0234,0.0239,0,0,0,0,0,-0.0481,-0.0482,-0.0468,-0.0459,-0.0428,-0.0405,-0.0401,-0.0314,-0.0277,-0.0259,-0.0149,-0.0118,0.0101,0.0073,0.0082,0.0126,0.0207,0.0212,0.0216,0.0225,0.0232,0.0239,0,0,0,0,0,0,-0.0492,-0.0465,-0.0446,-0.0433,-0.0401,-0.0369,-0.0351,-0.0318,-0.0239,-0.0204,-0.011,-0.0076,0.0047,0.0069,0.0036,0.0183,0.0163,0.0169,0.0166,0.0174,0.0179,0.015,0.0081,0,0,0,0,0,-0.0508,-0.0513,-0.0472,-0.0465,-0.045,-0.0415,-0.0397,-0.0347,-0.0276,-0.0235,-0.0157,-0.0059,0.0046,0.0104,0.0179,0.0223,0.0207,0.0264,0.027,0.0274,0.0259,0.0261,0.0264,0.0234,0.0234,0.0234,0,0,-0.0515,-0.0497,-0.05,-0.0471,-0.0451,-0.0441,-0.0386,-0.0354,-0.0317,-0.0227,-0.0143,-0.0044,0.0066,0.0168,0.0221,0.0206,0.0279,0.028,0.0283,0.0266,0.0266,0.0269,0.0271,0.0237,0.0237,0.0236,0,0,-0.0541,-0.0517,-0.0533,-0.0507,-0.0464,-0.0449,-0.0434,-0.039,-0.0323,-0.0258,-0.0141,-0.0012,0.0081,0.0202,0.0268,0.0329,0.0311,0.0357,0.0356,0.0359,0.036,0.0361,0.0348,0.0348,0.0355,0.0355,0.0355,0,-0.0544,-0.0552,-0.053,-0.0524,-0.0496,-0.0451,-0.0445,-0.0402,-0.0314,-0.0266,-0.021,-0.0011,0.01,0.0249,0.0318,0.0342,0.0323,0.0322,0.0362,0.0362,0.0363,0.035,0.0349,0.0356,0.0356,0.0356,0.0356,0,-0.0576,-0.0569,-0.0569,-0.0558,-0.0537,-0.0516,-0.0453,-0.0407,-0.0342,-0.0298,-0.0143,0.0011,0.0133,0.0208,0.0297,0.0384,0.0362,0.0368,0.0332,0.0366,0.0351,0.035,0.0358,0.0358,0.0357,0.0357,0,0,-0.0614,-0.0597,-0.0595,-0.0584,-0.054,-0.0528,-0.047,-0.0409,-0.0368,-0.0258,-0.019,0.0042,0.0107,0.0189,0.0317,0.0357,0.0389,0.037,0.0369,0.0335,0.0369,0.04,0.0401,0.0386,0.0386,0.0386,0.0357,0,-0.0637,-0.0641,-0.0624,-0.0618,-0.0609,-0.0543,-0.0497,-0.0433,-0.0362,-0.0293,-0.0126,-0.0018,0.0103,0.0188,0.0252,0.0355,0.0386,0.0395,0.0361,0.036,0.0364,0.0402,0.0398,0.0376,0.0356,0.0355,0.0355,0,-0.0669,-0.0663,-0.0664,-0.0628,-0.0617,-0.0609,-0.0533,-0.0487,-0.0385,-0.0318,-0.0207,-0.011,0.004,0.0111,0.0249,0.0239,0.0307,0.0367,0.0366,0.0383,0.0389,0.0342,0.0374,0.0353,0.0353,0.0353,0.0354,0,-0.07,-0.0688,-0.0689,-0.0672,-0.0631,-0.0604,-0.0579,-0.0499,-0.0442,-0.0354,-0.0311,-0.0174,-0.0068,0.0005,0.0183,0.0191,0.0283,0.0294,0.0377,0.0378,0.0364,0.0365,0.0352,0.0352,0.0352,0.0352,0.0352,0,-0.0718,-0.0717,-0.0704,-0.0692,-0.0679,-0.0643,-0.0611,-0.0556,-0.0482,-0.0432,-0.0329,-0.0238,-0.009,0.0005,0.0114,0.025,0.022,0.0374,0.0377,0.0373,0.0375,0.0346,0.0345,0.0351,0.0351,0.0351,0.0351,0,-0.0747,-0.0739,-0.0735,-0.0702,-0.0693,-0.0685,-0.0634,-0.061,-0.0538,-0.0472,-0.0443,-0.0294,-0.0173,-0.004,0.0096,0.0188,0.0286,0.0342,0.0329,0.0333,0.0382,0.0384,0.0384,0.0385,0.0385,0.0386,0.0387,0,-0.0762,-0.0763,-0.0745,-0.0751,-0.0739,-0.072,-0.0701,-0.0634,-0.0605,-0.0484,-0.0451,-0.0318,-0.0186,0.0005,0.0164,0.0294,0.0321,0.0361,0.0402,0.0385,0.0388,0.0388,0.0388,0.0382,0.0382,0.0383,0.0383,0,-0.0781,-0.0776,-0.0776,-0.0781,-0.078,-0.0765,-0.0735,-0.0712,-0.063,-0.0566,-0.0454,-0.0355,-0.0128,0.0053,0.0237,0.0317,0.0329,0.0374,0.0347,0.0389,0.0386,0.0388,0.0387,0.0387,0.0386,0.0386,0.0386,0.0386,-0.0798,-0.081,-0.0814,-0.0815,-0.0817,-0.0808,-0.0789,-0.0752,-0.0696,-0.0576,-0.0492,-0.0317,-0.0131,0.0157,0.0285,0.0404,0.0405,0.0426,0.0424,0.0421,0.044,0.0441,0.0454,0.0454,0.0454,0.0454,0.0454,0,-0.0826,-0.0838,-0.0846,-0.0854,-0.0855,-0.0841,-0.0808,-0.0771,-0.0711,-0.0573,-0.0466,-0.026,-0.0045,0.0156,0.0368,0.0474,0.0463,0.0472,0.0445,0.0441,0.0438,0.0458,0.0476,0.0476,0.0476,0.0477,0,0,-0.0848,-0.0868,-0.0866,-0.0877,-0.088,-0.087,-0.0847,-0.0783,-0.0675,-0.0529,-0.0384,-0.0247,0.0005,0.0138,0.0278,0.04,0.0386,0.0399,0.0372,0.032,0.0316,0.0403,0.0428,0,0,0,0,0]}],[{"header":{"parameterUnit":"m.s-1","parameterCategory":2,"la1":30.2991,"la2":30.254,"lo1":-89.0895,"lo2":-89.0444,"dy":0.0017,"dx":0.0017,"nx":28,"ny":28,"refTime":"2023-08-23T09:00:00:Z","depth":"4","parameterNumber":2,"parameterNumberName":"U-component_of_CURRENTS"},"data":[0,0,0,0,0,0,0,0,0,0,0,0,0,0,0,0,0,0,0,0,0,0,0,0,0,0,0,0,0,0,0,0,0,0,0,0,0,0,0,0,0,0,0,0,0,0,0,0,0,0,0,0,0,0,0,0,0,0,-0.1001,-0.1001,0,-0.104,-0.1041,-0.1041,-0.1029,-0.1028,-0.1027,-0.1027,-0.1112,-0.1115,-0.1118,0,0,0,0,0,0,0,0,0,0,0,0,0,-0.0933,-0.0934,-0.1001,-0.1001,-0.1002,-0.104,-0.1041,-0.1041,-0.1029,-0.1028,-0.1027,-0.1026,-0.1111,-0.1115,-0.1118,0,0,0,0,0,0,0,0,0,0,0,0,0,-0.0965,-0.0934,-0.1001,-0.1001,-0.1002,-0.104,-0.1041,-0.1041,-0.1029,-0.1028,-0.1027,-0.1026,-0.111,-0.1114,-0.1119,-0.1169,0,0,-0.1132,-0.1134,0,0,0,0,0,0,0,0,-0.0963,-0.0968,-0.1,-0.1001,-0.1002,-0.1029,-0.1048,-0.1087,-0.1029,-0.1018,-0.1027,-0.1025,-0.109,-0.1096,-0.1104,-0.1173,-0.1176,-0.1133,-0.1136,-0.1137,-0.1139,0,0,0,0,0,0,0,-0.0961,-0.0966,-0.1015,-0.1001,-0.1002,-0.1006,-0.1009,-0.1055,-0.106,-0.1018,-0.1018,-0.1024,-0.1091,-0.11,-0.1106,-0.1178,-0.1133,-0.1137,-0.1139,-0.1141,-0.1308,-0.131,0,0,0,0,0,0,-0.0959,-0.0964,-0.1014,-0.1017,-0.0981,-0.1008,-0.1011,-0.1021,-0.1058,-0.1063,-0.1025,-0.1024,-0.1093,-0.1101,-0.1109,-0.1174,-0.1137,-0.1142,-0.1144,-0.1306,-0.1308,-0.131,0,0,0,0,0,0,-0.0957,-0.0963,-0.1013,-0.0992,-0.0998,-0.101,-0.1021,-0.1022,-0.1044,-0.1063,-0.1068,-0.1047,-0.1092,-0.1103,-0.1147,-0.1177,-0.1144,-0.1148,-0.1304,-0.1307,-0.1309,-0.1302,0,0,0,0,0,0,-0.0955,-0.0963,-0.0976,-0.0992,-0.0999,-0.1044,-0.1022,-0.1024,-0.105,-0.1048,-0.1084,-0.109,-0.1092,-0.1141,-0.1152,-0.1183,-0.1151,-0.1302,-0.1305,-0.1308,-0.13,-0.1304,-0.1307,0,0,0,0,0,-0.0953,-0.0961,-0.0977,-0.0983,-0.1016,-0.1045,-0.105,-0.1053,-0.1052,-0.1068,-0.1081,-0.1089,-0.117,-0.1145,-0.1158,-0.1191,-0.13,-0.1304,-0.1308,-0.1298,-0.1303,-0.1307,0,0,0,0,0,0,-0.0938,-0.0962,-0.0979,-0.0996,-0.1028,-0.1043,-0.1053,-0.107,-0.1095,-0.1095,-0.1108,-0.1116,-0.1166,-0.1188,-0.1161,-0.1251,-0.124,-0.1246,-0.1228,-0.1233,-0.1237,-0.1211,-0.1155,0,0,0,0,0,-0.0946,-0.0956,-0.0992,-0.1008,-0.1023,-0.1049,-0.1065,-0.1078,-0.1098,-0.1108,-0.1137,-0.1168,-0.1194,-0.1218,-0.1249,-0.1305,-0.1298,-0.1338,-0.1342,-0.1344,-0.1335,-0.134,-0.1342,-0.1323,-0.1323,-0.1323,0,0,-0.0944,-0.0959,-0.0966,-0.1006,-0.1025,-0.1054,-0.1055,-0.1085,-0.1114,-0.1118,-0.1166,-0.1186,-0.1212,-0.1256,-0.1283,-0.1278,-0.135,-0.1349,-0.1351,-0.134,-0.1344,-0.1345,-0.1346,-0.1326,-0.1325,-0.1325,0,0,-0.0942,-0.0962,-0.0976,-0.1006,-0.1049,-0.1065,-0.1082,-0.1125,-0.1145,-0.1205,-0.1199,-0.1224,-0.1303,-0.1297,-0.1309,-0.1361,-0.1367,-0.1398,-0.1399,-0.1404,-0.1404,-0.1404,-0.1402,-0.1402,-0.1402,-0.1402,-0.1402,0,-0.0949,-0.0969,-0.0987,-0.1016,-0.1031,-0.1073,-0.1098,-0.1134,-0.1191,-0.1197,-0.1225,-0.1286,-0.1313,-0.1322,-0.1339,-0.1366,-0.1372,-0.1372,-0.1404,-0.1404,-0.1405,-0.1402,-0.1402,-0.1402,-0.1402,-0.1402,-0.1402,0,-0.0963,-0.0988,-0.0996,-0.1041,-0.1061,-0.1092,-0.1137,-0.1174,-0.1213,-0.1238,-0.1281,-0.1315,-0.1336,-0.1366,-0.1373,-0.1392,-0.1397,-0.1402,-0.1381,-0.1405,-0.1402,-0.1402,-0.1402,-0.1402,-0.1402,-0.1402,0,0,-0.0961,-0.1,-0.1011,-0.1023,-0.1077,-0.1091,-0.1133,-0.1166,-0.1187,-0.1256,-0.1276,-0.1323,-0.1332,-0.1347,-0.1363,-0.138,-0.1394,-0.1401,-0.1401,-0.1377,-0.1407,-0.1293,-0.1282,-0.1409,-0.1409,-0.1409,-0.1403,0,-0.0977,-0.1018,-0.1031,-0.1063,-0.108,-0.1109,-0.1144,-0.1176,-0.1217,-0.1257,-0.128,-0.1324,-0.133,-0.1358,-0.1364,-0.1402,-0.1395,-0.1395,-0.1406,-0.1405,-0.1283,-0.1278,-0.1409,-0.1403,-0.1403,-0.1403,-0.1403,0,-0.0992,-0.1014,-0.1048,-0.1062,-0.1072,-0.1101,-0.1125,-0.1167,-0.1212,-0.1245,-0.1263,-0.1298,-0.1326,-0.1347,-0.1371,-0.1378,-0.1381,-0.1402,-0.1402,-0.1293,-0.129,-0.1377,-0.1403,-0.1403,-0.1403,-0.1403,-0.1403,0,-0.0973,-0.1013,-0.1032,-0.1048,-0.1088,-0.1098,-0.1122,-0.1161,-0.1199,-0.1243,-0.1282,-0.1296,-0.1345,-0.135,-0.1377,-0.1391,-0.1403,-0.1423,-0.1305,-0.1298,-0.1405,-0.1405,-0.1407,-0.1407,-0.1407,-0.1407,-0.1407,0,-0.0969,-0.0983,-0.1031,-0.105,-0.1063,-0.1093,-0.1126,-0.1147,-0.1211,-0.124,-0.1279,-0.1306,-0.1357,-0.1369,-0.1372,-0.1325,-0.1385,-0.1288,-0.128,-0.1406,-0.1406,-0.1405,-0.1405,-0.1407,-0.1407,-0.1407,-0.1407,0,-0.0933,-0.0977,-0.0997,-0.1047,-0.1059,-0.1071,-0.1134,-0.1164,-0.1228,-0.1272,-0.1297,-0.1344,-0.1342,-0.1349,-0.1366,-0.1318,-0.1291,-0.1247,-0.1368,-0.1371,-0.1189,-0.1189,-0.113,-0.1126,-0.1122,-0.1119,-0.1117,0,-0.091,-0.0929,-0.099,-0.1001,-0.1024,-0.106,-0.1093,-0.1163,-0.1196,-0.1275,-0.1288,-0.1317,-0.1321,-0.1237,-0.1255,-0.1203,-0.1183,-0.1166,-0.1179,-0.1157,-0.1157,-0.1163,-0.1168,-0.1111,-0.111,-0.1109,-0.1108,0,-0.0857,-0.09,-0.092,-0.0955,-0.0985,-0.1016,-0.1065,-0.1091,-0.117,-0.1251,-0.1236,-0.1215,-0.1191,-0.1164,-0.1111,-0.1083,-0.1185,-0.1128,-0.1136,-0.1149,-0.1134,-0.1138,-0.1147,-0.1096,-0.1098,-0.1099,-0.1099,0,-0.0816,-0.0814,-0.0856,-0.0867,-0.0917,-0.0937,-0.0979,-0.1009,-0.1054,-0.1147,-0.1137,-0.114,-0.1181,-0.1099,-0.1062,-0.1007,-0.1001,-0.0984,-0.0999,-0.1013,-0.0973,-0.0936,-0.0814,0,0,0,0,0,-0.0753,-0.0739,-0.0755,-0.0768,-0.0826,-0.0844,-0.0937,-0.0993,-0.1086,-0.1045,-0.1087,-0.1047,-0.0985,-0.0995,-0.0909,-0.1001,-0.1,-0.0899,-0.0989,-0.1026,-0.1041,-0.1001,0,0,0,0,0,0,-0.0708,-0.0717,-0.0717,-0.0685,-0.0681,-0.0726,-0.0783,-0.0851,-0.084,-0.0934,-0.0901,-0.0968,-0.0917,-0.0991,-0.0875,-0.0875,-0.091,-0.0911,-0.0908,-0.1018,-0.1031,-0.1043,-0.1007,0,0,0,0,0]},{"header":{"parameterUnit":"m.s-1","parameterCategory":2,"la1":30.2991,"la2":30.254,"lo1":-89.0895,"lo2":-89.0444,"dy":0.0017,"dx":0.0017,"nx":28,"ny":28,"refTime":"2023-08-23T09:00:00:Z","depth":"4","parameterNumber":3,"parameterNumberName":"V-component_of_CURRENTS"},"data":[0,0,0,0,0,0,0,0,0,0,0,0,0,0,0,0,0,0,0,0,0,0,0,0,0,0,0,0,0,0,0,0,0,0,0,0,0,0,0,0,0,0,0,0,0,0,0,0,0,0,0,0,0,0,0,0,0,0,-0.0445,-0.0445,0,-0.0474,-0.0475,-0.0476,-0.0514,-0.0514,-0.0514,-0.0515,-0.0468,-0.0467,-0.0465,0,0,0,0,0,0,0,0,0,0,0,0,0,-0.0424,-0.0425,-0.0445,-0.0445,-0.0445,-0.0474,-0.0475,-0.0476,-0.0514,-0.0514,-0.0514,-0.0515,-0.0469,-0.0467,-0.0465,0,0,0,0,0,0,0,0,0,0,0,0,0,-0.0444,-0.0425,-0.0445,-0.0465,-0.0467,-0.0474,-0.0475,-0.0476,-0.0514,-0.0514,-0.0515,-0.0515,-0.047,-0.0467,-0.0465,-0.0442,0,0,-0.0458,-0.0457,0,0,0,0,0,0,0,0,-0.0443,-0.0446,-0.0462,-0.0464,-0.0466,-0.0488,-0.0451,-0.046,-0.0513,-0.0499,-0.0515,-0.0515,-0.0465,-0.0464,-0.0474,-0.0439,-0.0437,-0.0458,-0.0457,-0.0456,-0.0455,0,0,0,0,0,0,0,-0.0442,-0.0445,-0.046,-0.0462,-0.0464,-0.0473,-0.0477,-0.0453,-0.048,-0.0501,-0.0503,-0.0501,-0.0466,-0.0476,-0.0473,-0.0437,-0.0458,-0.0456,-0.0455,-0.0454,-0.0419,-0.042,0,0,0,0,0,0,-0.0431,-0.0443,-0.0459,-0.046,-0.0452,-0.0473,-0.0477,-0.0483,-0.0482,-0.0483,-0.05,-0.0502,-0.048,-0.0475,-0.0471,-0.048,-0.0456,-0.0453,-0.0452,-0.0419,-0.0419,-0.042,0,0,0,0,0,0,-0.0431,-0.0432,-0.0458,-0.0449,-0.0453,-0.0473,-0.0479,-0.0483,-0.0499,-0.0482,-0.0482,-0.0511,-0.048,-0.0474,-0.0473,-0.0477,-0.0452,-0.045,-0.0418,-0.0419,-0.042,-0.0473,0,0,0,0,0,0,-0.043,-0.0432,-0.0438,-0.0449,-0.0453,-0.0468,-0.0478,-0.0483,-0.0495,-0.0498,-0.0491,-0.0488,-0.048,-0.0477,-0.0471,-0.0473,-0.0449,-0.0418,-0.0419,-0.0419,-0.0471,-0.0476,-0.048,0,0,0,0,0,-0.0429,-0.0439,-0.0439,-0.0441,-0.0459,-0.0468,-0.0472,-0.0489,-0.0495,-0.0505,-0.0511,-0.0488,-0.0478,-0.0476,-0.0468,-0.047,-0.0417,-0.0418,-0.0419,-0.0469,-0.0475,-0.048,0,0,0,0,0,0,-0.0437,-0.0444,-0.0444,-0.0456,-0.0461,-0.0473,-0.0485,-0.0489,-0.0503,-0.0508,-0.0496,-0.0493,-0.0493,-0.0473,-0.0471,-0.0463,-0.0442,-0.0442,-0.0482,-0.0487,-0.0492,-0.0493,-0.0447,0,0,0,0,0,-0.0438,-0.0449,-0.045,-0.0461,-0.0463,-0.0472,-0.0479,-0.0487,-0.0496,-0.0504,-0.0497,-0.0491,-0.0489,-0.0483,-0.0474,-0.0466,-0.0415,-0.0461,-0.0466,-0.047,-0.0466,-0.0411,-0.0409,-0.0423,-0.0423,-0.0423,0,0,-0.0443,-0.0448,-0.0454,-0.0463,-0.0471,-0.0481,-0.048,-0.0492,-0.0505,-0.0492,-0.0509,-0.0504,-0.0491,-0.0496,-0.0492,-0.048,-0.0435,-0.0471,-0.0475,-0.0469,-0.0411,-0.041,-0.0408,-0.0424,-0.0424,-0.0424,0,0,-0.0459,-0.0463,-0.0477,-0.0481,-0.0487,-0.0493,-0.0495,-0.0504,-0.0514,-0.0523,-0.0524,-0.0527,-0.0512,-0.0516,-0.0514,-0.0531,-0.0462,-0.052,-0.0542,-0.0488,-0.0486,-0.0484,-0.0398,-0.0388,-0.0521,-0.0521,-0.0521,0,-0.0461,-0.0482,-0.0482,-0.0494,-0.05,-0.0498,-0.0512,-0.0521,-0.0529,-0.0533,-0.0533,-0.053,-0.0525,-0.0532,-0.0552,-0.0541,-0.0483,-0.0525,-0.0493,-0.049,-0.0487,-0.0399,-0.0387,-0.0524,-0.0524,-0.0523,-0.0523,0,-0.0487,-0.0502,-0.0511,-0.0527,-0.0533,-0.0544,-0.0547,-0.0556,-0.0561,-0.0563,-0.0567,-0.0566,-0.0559,-0.0564,-0.0569,-0.055,-0.0506,-0.0506,-0.0479,-0.0488,-0.0395,-0.0382,-0.0528,-0.0527,-0.0526,-0.0525,0,0,-0.0491,-0.0522,-0.0526,-0.0534,-0.055,-0.0554,-0.0576,-0.0587,-0.0593,-0.0596,-0.0591,-0.0614,-0.0599,-0.0595,-0.059,-0.0561,-0.0497,-0.0529,-0.0525,-0.0441,-0.0341,-0.0346,-0.033,-0.0485,-0.0484,-0.0483,-0.0278,0,-0.0509,-0.054,-0.0552,-0.0576,-0.0588,-0.0593,-0.061,-0.0618,-0.0619,-0.0609,-0.0603,-0.0593,-0.0612,-0.0601,-0.058,-0.0516,-0.0466,-0.055,-0.0346,-0.0339,-0.0342,-0.0318,-0.0478,-0.0267,-0.0264,-0.0262,-0.026,0,-0.0529,-0.0547,-0.0578,-0.0596,-0.0601,-0.0615,-0.0629,-0.0641,-0.0634,-0.0629,-0.0619,-0.0594,-0.0563,-0.0568,-0.0456,-0.0503,-0.0426,-0.0375,-0.0365,-0.0343,-0.032,-0.026,-0.0234,-0.0236,-0.0238,-0.024,-0.0242,0,-0.0528,-0.056,-0.0586,-0.0593,-0.0617,-0.0631,-0.0641,-0.065,-0.0647,-0.0626,-0.0597,-0.0566,-0.0514,-0.0443,-0.0356,-0.0386,-0.0205,-0.0225,-0.0149,-0.0146,-0.0178,-0.0183,-0.0126,-0.0126,-0.0127,-0.0127,-0.0128,0,-0.0537,-0.0555,-0.0587,-0.0598,-0.0621,-0.0632,-0.0645,-0.0654,-0.0638,-0.0618,-0.0596,-0.0548,-0.0478,-0.0376,-0.0314,-0.0182,-0.0159,-0.0136,-0.0098,-0.0203,-0.0213,-0.0166,-0.0174,-0.0119,-0.0121,-0.0123,-0.0124,0,-0.0532,-0.0557,-0.0584,-0.0615,-0.0623,-0.0637,-0.0644,-0.0649,-0.0629,-0.0591,-0.0571,-0.0493,-0.0368,-0.0283,-0.0135,-0.0106,0.0004,0.0049,-0.0032,-0.0004,0.0026,0.0013,0.0166,0.0167,0.0169,0.017,0.0171,0,-0.0535,-0.055,-0.0592,-0.0613,-0.0629,-0.0647,-0.0661,-0.0653,-0.0643,-0.0556,-0.0525,-0.0391,-0.0337,-0.0112,-0.0047,0.0104,0.0097,0.0171,0.0048,0.0032,0.0054,0.0039,0.0025,0.0172,0.0173,0.0173,0.0173,0,-0.0538,-0.0558,-0.0582,-0.0623,-0.0646,-0.066,-0.0666,-0.0645,-0.0616,-0.0583,-0.0464,-0.036,-0.0208,-0.0092,0.0033,0.0122,0.0119,0.0183,0.018,0.0065,0.0042,0.0059,0.0044,0.0178,0.0177,0.0177,0.0176,0,-0.0543,-0.0564,-0.0602,-0.0629,-0.0663,-0.067,-0.0667,-0.063,-0.06,-0.0504,-0.0455,-0.0311,-0.0224,-0.0076,0.0034,0.0123,0.0119,0.0116,0.0116,0.0112,-0.0003,-0.0047,0.0112,0,0,0,0,0,-0.0547,-0.057,-0.0604,-0.064,-0.0671,-0.0684,-0.0674,-0.0661,-0.0608,-0.0529,-0.0492,-0.0359,-0.0182,-0.0097,-0.0007,0.0032,0.012,0.0137,0.0112,0.0201,0.0196,0.0064,0,0,0,0,0,0,-0.0555,-0.0592,-0.0604,-0.064,-0.0663,-0.0689,-0.0681,-0.0646,-0.0593,-0.0527,-0.0429,-0.036,-0.0188,-0.0238,-0.0012,0.0018,0.0009,0.0226,0.0227,0.0204,0.0199,0.0195,0.0058,0,0,0,0,0]}]]